NKS1833 KDTW-KDFW

Flight info

Callsign NKS1833
Flight time 2h 42m
Altitude 36000
Route SNDRS3 BGHRT STL RZC FSM RRNET BRDJE5
Aircraft A320/M-SDE3FGHIRWY/LB1

Departure

Time 2026-05-07 12:28
Airport Detroit Metropolitan Wayne County Airport (KDTW)

Arrival

Time 2026-05-07 15:11
Airport Dallas Fort Worth International Airport (KDFW)
Time Latitude Longitude Altitude Speed Heading
2026-05-07 10:43 42.22616 -83.34886 647 ft 0 kts 119°
2026-05-07 11:45 42.22618 -83.34892 647 ft 3 kts 119°
2026-05-07 11:45 42.22631 -83.34923 649 ft 3 kts 119°
2026-05-07 11:46 42.22643 -83.34947 649 ft 4 kts 153°
2026-05-07 11:46 42.22667 -83.34950 649 ft 4 kts 203°
2026-05-07 11:46 42.22689 -83.34934 647 ft 2 kts 208°
2026-05-07 11:46 42.22691 -83.34933 647 ft 0 kts 208°
2026-05-07 11:50 42.22690 -83.34933 647 ft 1 kts 208°
2026-05-07 11:50 42.22679 -83.34942 648 ft 3 kts 208°
2026-05-07 11:50 42.22654 -83.34960 648 ft 5 kts 208°
2026-05-07 11:51 42.22616 -83.34988 647 ft 7 kts 208°
2026-05-07 11:51 42.22562 -83.35028 647 ft 10 kts 208°
2026-05-07 11:51 42.22499 -83.35074 647 ft 11 kts 208°
2026-05-07 11:51 42.22438 -83.35133 648 ft 7 kts 230°
2026-05-07 11:52 42.22429 -83.35147 647 ft 0 kts 230°
2026-05-07 12:04 42.22429 -83.35149 629 ft 1 kts 230°
2026-05-07 12:04 42.22420 -83.35163 648 ft 3 kts 230°
2026-05-07 12:05 42.22395 -83.35204 649 ft 7 kts 233°
2026-05-07 12:05 42.22364 -83.35267 648 ft 9 kts 233°
2026-05-07 12:05 42.22306 -83.35329 647 ft 12 kts 219°
2026-05-07 12:05 42.22228 -83.35393 647 ft 14 kts 208°
2026-05-07 12:06 42.22132 -83.35464 647 ft 17 kts 209°
2026-05-07 12:06 42.22021 -83.35546 647 ft 19 kts 208°
2026-05-07 12:06 42.21914 -83.35625 647 ft 15 kts 208°
2026-05-07 12:06 42.21842 -83.35649 646 ft 9 kts 147°
2026-05-07 12:07 42.21819 -83.35573 646 ft 10 kts 87°
2026-05-07 12:07 42.21821 -83.35471 647 ft 12 kts 90°
2026-05-07 12:07 42.21823 -83.35351 646 ft 14 kts 89°
2026-05-07 12:07 42.21826 -83.35209 647 ft 16 kts 89°
2026-05-07 12:08 42.21828 -83.35050 647 ft 18 kts 89°
2026-05-07 12:08 42.21831 -83.34882 647 ft 17 kts 89°
2026-05-07 12:08 42.21833 -83.34707 647 ft 20 kts 89°
2026-05-07 12:08 42.21841 -83.34546 650 ft 16 kts 67°
2026-05-07 12:09 42.21927 -83.34448 647 ft 17 kts 29°
2026-05-07 12:09 42.22042 -83.34364 647 ft 20 kts 28°
2026-05-07 12:09 42.22120 -83.34304 648 ft 12 kts 28°
2026-05-07 12:09 42.22201 -83.34245 647 ft 14 kts 28°
2026-05-07 12:10 42.22296 -83.34178 647 ft 17 kts 27°
2026-05-07 12:10 42.22405 -83.34098 647 ft 19 kts 28°
2026-05-07 12:10 42.22525 -83.34006 649 ft 21 kts 30°
2026-05-07 12:10 42.22610 -83.33948 649 ft 8 kts 28°
2026-05-07 12:11 42.22664 -83.33906 647 ft 10 kts 29°
2026-05-07 12:11 42.22734 -83.33853 647 ft 13 kts 29°
2026-05-07 12:11 42.22789 -83.33812 647 ft 14 kts 29°
2026-05-07 12:11 42.22858 -83.33736 646 ft 4 kts 81°
2026-05-07 12:12 42.22857 -83.33723 646 ft 0 kts 96°
2026-05-07 12:26 42.22853 -83.33709 645 ft 3 kts 114°
2026-05-07 12:26 42.22836 -83.33663 646 ft 7 kts 124°
2026-05-07 12:26 42.22787 -83.33649 645 ft 8 kts 195°
2026-05-07 12:27 42.22763 -83.33664 645 ft 0 kts 207°
2026-05-07 12:27 42.22748 -83.33675 647 ft 11 kts 207°
2026-05-07 12:27 42.22607 -83.33783 647 ft 40 kts 210°
2026-05-07 12:27 42.22156 -83.34115 647 ft 105 kts 208°
2026-05-07 12:28 42.21365 -83.34700 648 ft 153 kts 209°
2026-05-07 12:28 42.20430 -83.35424 1243 ft 142 kts 212°
2026-05-07 12:28 42.19625 -83.36094 1877 ft 142 kts 210°
2026-05-07 12:28 42.18706 -83.36658 2291 ft 147 kts 193°
2026-05-07 12:29 42.17669 -83.36979 2506 ft 163 kts 196°
2026-05-07 12:29 42.16522 -83.37428 2742 ft 183 kts 197°
2026-05-07 12:29 42.15241 -83.37910 3084 ft 201 kts 196°
2026-05-07 12:29 42.13810 -83.38444 3330 ft 227 kts 195°
2026-05-07 12:30 42.12197 -83.39030 3758 ft 251 kts 194°
2026-05-07 12:30 42.10466 -83.39658 4503 ft 261 kts 198°
2026-05-07 12:30 42.08712 -83.40308 5475 ft 262 kts 199°
2026-05-07 12:30 42.07032 -83.41248 6388 ft 262 kts 212°
2026-05-07 12:31 42.05505 -83.42636 6878 ft 266 kts 219°
2026-05-07 12:31 42.04012 -83.44098 6996 ft 265 kts 219°
2026-05-07 12:31 42.02528 -83.45564 7027 ft 265 kts 219°
2026-05-07 12:31 42.01045 -83.47029 7027 ft 264 kts 219°
2026-05-07 12:32 41.99563 -83.48490 7028 ft 264 kts 219°
2026-05-07 12:32 41.98079 -83.49964 7143 ft 268 kts 220°
2026-05-07 12:32 41.96597 -83.51488 8030 ft 268 kts 221°
2026-05-07 12:32 41.95117 -83.53027 8925 ft 270 kts 221°
2026-05-07 12:33 41.92110 -83.56165 10419 ft 283 kts 223°
2026-05-07 12:33 41.90495 -83.57853 10637 ft 306 kts 222°
2026-05-07 12:33 41.88753 -83.59668 10790 ft 329 kts 222°
2026-05-07 12:34 41.86886 -83.61603 11029 ft 347 kts 221°
2026-05-07 12:34 41.84952 -83.63588 11614 ft 353 kts 221°
2026-05-07 12:34 41.82996 -83.65586 12300 ft 355 kts 222°
2026-05-07 12:34 41.81022 -83.67601 12985 ft 358 kts 222°
2026-05-07 12:35 41.79036 -83.69631 13684 ft 360 kts 222°
2026-05-07 12:35 41.77041 -83.71674 14323 ft 362 kts 223°
2026-05-07 12:35 41.75038 -83.73724 14947 ft 364 kts 223°
2026-05-07 12:35 41.73025 -83.75787 15568 ft 365 kts 223°
2026-05-07 12:36 41.70997 -83.77862 16188 ft 368 kts 223°
2026-05-07 12:36 41.68846 -83.79842 16819 ft 374 kts 217°
2026-05-07 12:36 41.66641 -83.81616 17454 ft 376 kts 217°
2026-05-07 12:36 41.64359 -83.83447 18099 ft 379 kts 217°
2026-05-07 12:37 41.62094 -83.85261 18660 ft 381 kts 217°
2026-05-07 12:37 41.59815 -83.87089 19237 ft 382 kts 217°
2026-05-07 12:37 41.57537 -83.88916 19831 ft 383 kts 217°
2026-05-07 12:37 41.55253 -83.90746 20419 ft 383 kts 217°
2026-05-07 12:38 41.52997 -83.92550 20974 ft 383 kts 217°
2026-05-07 12:38 41.50711 -83.94377 21500 ft 383 kts 217°
2026-05-07 12:38 41.48396 -83.96228 22018 ft 383 kts 218°
2026-05-07 12:38 41.46106 -83.98059 22512 ft 384 kts 218°
2026-05-07 12:39 41.43817 -83.99889 22984 ft 384 kts 218°
2026-05-07 12:39 41.41527 -84.01722 23456 ft 384 kts 218°
2026-05-07 12:39 41.39261 -84.03530 23839 ft 385 kts 218°
2026-05-07 12:39 41.36930 -84.05381 24206 ft 386 kts 218°
2026-05-07 12:40 41.34619 -84.07211 24549 ft 387 kts 218°
2026-05-07 12:40 41.32298 -84.09049 24894 ft 388 kts 218°
2026-05-07 12:40 41.29977 -84.10891 25227 ft 390 kts 218°
2026-05-07 12:40 41.27738 -84.12890 25552 ft 385 kts 225°
2026-05-07 12:41 41.25826 -84.15321 25900 ft 378 kts 234°
2026-05-07 12:41 41.24280 -84.18108 26366 ft 372 kts 242°
2026-05-07 12:41 41.23124 -84.21148 26863 ft 367 kts 250°
2026-05-07 12:41 41.22195 -84.24287 27359 ft 364 kts 250°
2026-05-07 12:42 41.21265 -84.27406 27874 ft 362 kts 250°
2026-05-07 12:42 41.20334 -84.30505 28395 ft 360 kts 250°
2026-05-07 12:42 41.19408 -84.33578 28919 ft 358 kts 250°
2026-05-07 12:42 41.18484 -84.36638 29453 ft 356 kts 250°
2026-05-07 12:43 41.17568 -84.39679 30000 ft 354 kts 250°
2026-05-07 12:43 41.16661 -84.42700 30447 ft 352 kts 250°
2026-05-07 12:43 41.15757 -84.45708 30861 ft 350 kts 250°
2026-05-07 12:43 41.14854 -84.48703 31271 ft 349 kts 250°
2026-05-07 12:44 41.13951 -84.51689 31677 ft 348 kts 250°
2026-05-07 12:44 41.13051 -84.54663 32088 ft 347 kts 250°
2026-05-07 12:44 41.12149 -84.57640 32500 ft 347 kts 250°
2026-05-07 12:44 41.11252 -84.60600 32922 ft 346 kts 250°
2026-05-07 12:45 41.10376 -84.63563 33348 ft 344 kts 253°
2026-05-07 12:45 41.09784 -84.66619 33765 ft 342 kts 257°
2026-05-07 12:45 41.09273 -84.69696 34164 ft 342 kts 257°
2026-05-07 12:45 41.08761 -84.72773 34498 ft 341 kts 257°
2026-05-07 12:46 41.08246 -84.75840 34793 ft 341 kts 257°
2026-05-07 12:46 41.07729 -84.78907 35069 ft 341 kts 257°
2026-05-07 12:46 41.07210 -84.81977 35335 ft 342 kts 257°
2026-05-07 12:46 41.06688 -84.85056 35609 ft 342 kts 257°
2026-05-07 12:47 41.06164 -84.88128 35871 ft 342 kts 257°
2026-05-07 12:47 41.05643 -84.91211 36054 ft 343 kts 258°
2026-05-07 12:47 41.04636 -84.97483 36067 ft 355 kts 257°
2026-05-07 12:48 41.03504 -85.03915 36063 ft 360 kts 257°
2026-05-07 12:48 41.02358 -85.10383 36064 ft 361 kts 257°
2026-05-07 12:49 41.01419 -85.15775 36062 ft 362 kts 257°
2026-05-07 12:49 41.00292 -85.22272 36063 ft 362 kts 257°
2026-05-07 12:50 40.99166 -85.28777 36063 ft 363 kts 257°
2026-05-07 12:50 40.98064 -85.35140 36063 ft 363 kts 257°
2026-05-07 12:51 40.96931 -85.41649 36073 ft 363 kts 257°
2026-05-07 12:51 40.95789 -85.48168 36071 ft 364 kts 257°
2026-05-07 12:52 40.94638 -85.54731 36074 ft 364 kts 257°
2026-05-07 12:52 40.93497 -85.61214 36073 ft 364 kts 257°
2026-05-07 12:53 40.92331 -85.67778 36074 ft 364 kts 257°
2026-05-07 12:53 40.91176 -85.74303 36073 ft 365 kts 257°
2026-05-07 12:54 40.90020 -85.80789 36077 ft 365 kts 257°
2026-05-07 12:54 40.88843 -85.87355 36076 ft 365 kts 257°
2026-05-07 12:55 40.88001 -85.93916 36079 ft 365 kts 262°
2026-05-07 12:55 40.87301 -86.00558 36080 ft 365 kts 262°
2026-05-07 12:56 40.86585 -86.07239 36079 ft 365 kts 262°
2026-05-07 12:56 40.85861 -86.13888 36084 ft 366 kts 262°
2026-05-07 12:57 40.85135 -86.20532 36100 ft 366 kts 262°
2026-05-07 12:57 40.84407 -86.27186 36104 ft 366 kts 262°
2026-05-07 12:58 40.83680 -86.33836 36109 ft 366 kts 262°
2026-05-07 12:58 40.82944 -86.40493 36110 ft 366 kts 262°
2026-05-07 12:59 40.82210 -86.47143 36108 ft 366 kts 262°
2026-05-07 12:59 40.81469 -86.53801 36108 ft 366 kts 262°
2026-05-07 13:00 40.80728 -86.60456 36110 ft 366 kts 262°
2026-05-07 13:00 40.79977 -86.67101 36105 ft 366 kts 262°
2026-05-07 13:01 40.79222 -86.73752 36102 ft 366 kts 262°
2026-05-07 13:01 40.78463 -86.80395 36101 ft 366 kts 262°
2026-05-07 13:02 40.77705 -86.87031 36101 ft 366 kts 262°
2026-05-07 13:02 40.76948 -86.93665 36106 ft 366 kts 262°
2026-05-07 13:03 40.76183 -87.00289 36112 ft 365 kts 262°
2026-05-07 13:03 40.75412 -87.06917 36111 ft 365 kts 262°
2026-05-07 13:04 40.74641 -87.13533 36110 ft 365 kts 262°
2026-05-07 13:04 40.73863 -87.20150 36107 ft 365 kts 262°
2026-05-07 13:05 40.73080 -87.26761 36110 ft 365 kts 262°
2026-05-07 13:05 40.72293 -87.33371 36106 ft 365 kts 262°
2026-05-07 13:06 40.71506 -87.39978 36103 ft 365 kts 262°
2026-05-07 13:06 40.70717 -87.46583 36102 ft 365 kts 262°
2026-05-07 13:07 40.69924 -87.53184 36100 ft 365 kts 262°
2026-05-07 13:07 40.69123 -87.59782 36098 ft 365 kts 262°
2026-05-07 13:08 40.68319 -87.66379 36095 ft 365 kts 262°
2026-05-07 13:08 40.67513 -87.72972 36096 ft 365 kts 262°
2026-05-07 13:09 40.66700 -87.79570 36097 ft 365 kts 262°
2026-05-07 13:09 40.65882 -87.86167 36095 ft 365 kts 262°
2026-05-07 13:10 40.64689 -87.92648 36091 ft 368 kts 249°
2026-05-07 13:10 40.61706 -87.98229 36085 ft 379 kts 235°
2026-05-07 13:11 40.58192 -88.03408 36080 ft 380 kts 235°
2026-05-07 13:11 40.54683 -88.08608 36080 ft 380 kts 236°
2026-05-07 13:12 40.51174 -88.13809 36081 ft 380 kts 235°
2026-05-07 13:12 40.47652 -88.19001 36083 ft 381 kts 235°
2026-05-07 13:13 40.44123 -88.24197 36084 ft 381 kts 235°
2026-05-07 13:13 40.40587 -88.29386 36086 ft 381 kts 235°
2026-05-07 13:14 40.37051 -88.34574 36085 ft 381 kts 235°
2026-05-07 13:14 40.33511 -88.39757 36084 ft 382 kts 235°
2026-05-07 13:15 40.29968 -88.44938 36080 ft 382 kts 235°
2026-05-07 13:15 40.26419 -88.50121 36082 ft 382 kts 235°
2026-05-07 13:16 40.22865 -88.55293 36087 ft 382 kts 235°
2026-05-07 13:16 40.19309 -88.60468 36087 ft 382 kts 235°
2026-05-07 13:17 40.15751 -88.65637 36089 ft 382 kts 235°
2026-05-07 13:17 40.12189 -88.70801 36082 ft 383 kts 235°
2026-05-07 13:18 40.08602 -88.75998 36092 ft 383 kts 235°
2026-05-07 13:18 40.05031 -88.81154 36089 ft 383 kts 235°
2026-05-07 13:19 40.01456 -88.86305 36097 ft 383 kts 235°
2026-05-07 13:19 39.97882 -88.91447 36096 ft 383 kts 235°
2026-05-07 13:20 39.94307 -88.96593 36099 ft 383 kts 235°
2026-05-07 13:20 39.90730 -89.01735 36097 ft 383 kts 235°
2026-05-07 13:21 39.87150 -89.06862 36097 ft 383 kts 235°
2026-05-07 13:21 39.83557 -89.11989 36098 ft 383 kts 234°
2026-05-07 13:22 39.79968 -89.17109 36100 ft 383 kts 234°
2026-05-07 13:22 39.76379 -89.22225 36103 ft 383 kts 234°
2026-05-07 13:23 39.72788 -89.27341 36112 ft 383 kts 234°
2026-05-07 13:23 39.69195 -89.32446 36115 ft 383 kts 234°
2026-05-07 13:24 39.65599 -89.37548 36113 ft 383 kts 234°
2026-05-07 13:24 39.62002 -89.42640 36113 ft 383 kts 234°
2026-05-07 13:25 39.58401 -89.47732 36113 ft 383 kts 234°
2026-05-07 13:25 39.54801 -89.52816 36111 ft 383 kts 234°
2026-05-07 13:26 39.51808 -89.57040 36109 ft 383 kts 234°
2026-05-07 13:26 39.48202 -89.62110 36107 ft 383 kts 234°
2026-05-07 13:27 39.44598 -89.67173 36104 ft 383 kts 234°
2026-05-07 13:27 39.40986 -89.72243 36104 ft 383 kts 234°
2026-05-07 13:28 39.37373 -89.77298 36102 ft 383 kts 234°
2026-05-07 13:28 39.33757 -89.82342 36107 ft 383 kts 234°
2026-05-07 13:29 39.30140 -89.87381 36105 ft 382 kts 234°
2026-05-07 13:29 39.26526 -89.92417 36109 ft 382 kts 234°
2026-05-07 13:30 39.22912 -89.97448 36110 ft 382 kts 234°
2026-05-07 13:30 39.19295 -90.02475 36114 ft 382 kts 234°
2026-05-07 13:31 39.15675 -90.07497 36114 ft 382 kts 234°
2026-05-07 13:31 39.12050 -90.12509 36116 ft 382 kts 234°
2026-05-07 13:32 39.08421 -90.17512 36118 ft 382 kts 234°
2026-05-07 13:32 39.04800 -90.22514 36117 ft 382 kts 234°
2026-05-07 13:33 39.01181 -90.27514 36125 ft 382 kts 234°
2026-05-07 13:33 38.97628 -90.32412 36123 ft 382 kts 234°
2026-05-07 13:34 38.92183 -90.39870 36135 ft 381 kts 234°
2026-05-07 13:35 38.88552 -90.44847 36134 ft 381 kts 234°
2026-05-07 13:35 38.84912 -90.49850 36132 ft 380 kts 235°
2026-05-07 13:36 38.81452 -90.54906 36128 ft 379 kts 236°
2026-05-07 13:36 38.78026 -90.60034 36130 ft 379 kts 236°
2026-05-07 13:37 38.74556 -90.65176 36138 ft 379 kts 236°
2026-05-07 13:37 38.71114 -90.70226 36133 ft 379 kts 236°
2026-05-07 13:38 38.67620 -90.75329 36133 ft 379 kts 236°
2026-05-07 13:38 38.64144 -90.80397 36132 ft 379 kts 236°
2026-05-07 13:39 38.60671 -90.85468 36146 ft 379 kts 236°
2026-05-07 13:39 38.57197 -90.90527 36149 ft 379 kts 236°
2026-05-07 13:40 38.53719 -90.95576 36149 ft 378 kts 236°
2026-05-07 13:40 38.50244 -91.00614 36150 ft 378 kts 236°
2026-05-07 13:41 38.46773 -91.05647 36145 ft 377 kts 236°
2026-05-07 13:41 38.43307 -91.10668 36149 ft 377 kts 236°
2026-05-07 13:42 38.39836 -91.15682 36162 ft 377 kts 236°
2026-05-07 13:42 38.36365 -91.20684 36167 ft 376 kts 236°
2026-05-07 13:43 38.32896 -91.25674 36168 ft 376 kts 236°
2026-05-07 13:43 38.29431 -91.30653 36169 ft 376 kts 236°
2026-05-07 13:44 38.25963 -91.35626 36164 ft 375 kts 236°
2026-05-07 13:44 38.22495 -91.40595 36158 ft 375 kts 236°
2026-05-07 13:45 38.19031 -91.45559 36151 ft 375 kts 236°
2026-05-07 13:45 38.15564 -91.50508 36144 ft 375 kts 236°
2026-05-07 13:46 38.12095 -91.55448 36150 ft 374 kts 236°
2026-05-07 13:46 38.08640 -91.60380 36155 ft 374 kts 236°
2026-05-07 13:47 38.05181 -91.65309 36155 ft 373 kts 236°
2026-05-07 13:47 38.01720 -91.70217 36153 ft 373 kts 236°
2026-05-07 13:48 37.98258 -91.75117 36153 ft 373 kts 236°
2026-05-07 13:48 37.94797 -91.80016 36148 ft 373 kts 236°
2026-05-07 13:49 37.91339 -91.84909 36142 ft 373 kts 236°
2026-05-07 13:49 37.87880 -91.89790 36126 ft 372 kts 236°
2026-05-07 13:50 37.84415 -91.94665 36125 ft 372 kts 236°
2026-05-07 13:50 37.80957 -91.99532 36124 ft 372 kts 236°
2026-05-07 13:51 37.77506 -92.04387 36127 ft 371 kts 236°
2026-05-07 13:51 37.74050 -92.09237 36129 ft 371 kts 236°
2026-05-07 13:52 37.70595 -92.14074 36128 ft 371 kts 236°
2026-05-07 13:52 37.67138 -92.18908 36126 ft 371 kts 236°
2026-05-07 13:53 37.63682 -92.23732 36123 ft 370 kts 236°
2026-05-07 13:53 37.60224 -92.28554 36121 ft 370 kts 236°
2026-05-07 13:54 37.56769 -92.33367 36119 ft 370 kts 236°
2026-05-07 13:54 37.53306 -92.38169 36142 ft 370 kts 236°
2026-05-07 13:55 37.49848 -92.42967 36145 ft 370 kts 236°
2026-05-07 13:55 37.46396 -92.47753 36145 ft 369 kts 236°
2026-05-07 13:56 37.42943 -92.52535 36144 ft 369 kts 236°
2026-05-07 13:56 37.39469 -92.57340 36145 ft 369 kts 236°
2026-05-07 13:57 37.36017 -92.62102 36138 ft 368 kts 236°
2026-05-07 13:57 37.32563 -92.66859 36124 ft 368 kts 236°
2026-05-07 13:58 37.29115 -92.71603 36134 ft 368 kts 236°
2026-05-07 13:58 37.25664 -92.76338 36133 ft 367 kts 236°
2026-05-07 13:59 37.22222 -92.81061 36137 ft 367 kts 236°
2026-05-07 13:59 37.18784 -92.85778 36137 ft 366 kts 236°
2026-05-07 14:00 37.15345 -92.90482 36136 ft 366 kts 236°
2026-05-07 14:00 37.11907 -92.95173 36136 ft 365 kts 235°
2026-05-07 14:01 37.08466 -92.99858 36130 ft 365 kts 236°
2026-05-07 14:01 37.05031 -93.04538 36135 ft 365 kts 235°
2026-05-07 14:02 37.01598 -93.09212 36129 ft 364 kts 236°
2026-05-07 14:02 36.98168 -93.13869 36137 ft 364 kts 236°
2026-05-07 14:03 36.94743 -93.18515 36148 ft 363 kts 236°
2026-05-07 14:03 36.91905 -93.22366 36161 ft 362 kts 236°
2026-05-07 14:04 36.88494 -93.26987 36163 ft 361 kts 236°
2026-05-07 14:04 36.85086 -93.31581 36167 ft 360 kts 235°
2026-05-07 14:05 36.81678 -93.36157 36172 ft 359 kts 236°
2026-05-07 14:05 36.78289 -93.40733 36171 ft 359 kts 236°
2026-05-07 14:06 36.74901 -93.45291 36168 ft 358 kts 236°
2026-05-07 14:06 36.71513 -93.49836 36167 ft 357 kts 236°
2026-05-07 14:07 36.68110 -93.54396 36166 ft 356 kts 236°
2026-05-07 14:07 36.64766 -93.58888 36161 ft 356 kts 236°
2026-05-07 14:08 36.61371 -93.63419 36167 ft 355 kts 236°
2026-05-07 14:08 36.58009 -93.67906 36161 ft 354 kts 236°
2026-05-07 14:09 36.54653 -93.72381 36159 ft 353 kts 236°
2026-05-07 14:09 36.51307 -93.76839 36166 ft 352 kts 236°
2026-05-07 14:10 36.47969 -93.81286 36170 ft 351 kts 236°
2026-05-07 14:10 36.44637 -93.85709 36174 ft 351 kts 236°
2026-05-07 14:11 36.41308 -93.90125 36175 ft 350 kts 236°
2026-05-07 14:11 36.37976 -93.94537 36179 ft 350 kts 236°
2026-05-07 14:12 36.34648 -93.98939 36181 ft 349 kts 236°
2026-05-07 14:12 36.31330 -94.03328 36179 ft 349 kts 236°
2026-05-07 14:13 36.28006 -94.07707 36179 ft 349 kts 236°
2026-05-07 14:13 36.24184 -94.11568 36179 ft 373 kts 219°
2026-05-07 14:13 36.21664 -94.12657 36178 ft 397 kts 206°
2026-05-07 14:14 36.18907 -94.13197 36173 ft 403 kts 204°
2026-05-07 14:14 36.13343 -94.14167 36163 ft 404 kts 203°
2026-05-07 14:15 36.07774 -94.15130 36169 ft 404 kts 204°
2026-05-07 14:15 36.02213 -94.16104 36165 ft 403 kts 204°
2026-05-07 14:16 35.96661 -94.17080 36166 ft 403 kts 204°
2026-05-07 14:16 35.91113 -94.18054 36170 ft 403 kts 204°
2026-05-07 14:17 35.85573 -94.19018 36164 ft 402 kts 204°
2026-05-07 14:17 35.80033 -94.19987 36164 ft 402 kts 204°
2026-05-07 14:18 35.74499 -94.20956 36160 ft 402 kts 204°
2026-05-07 14:18 35.68971 -94.21921 36156 ft 401 kts 204°
2026-05-07 14:19 35.63450 -94.22887 36161 ft 401 kts 204°
2026-05-07 14:19 35.57936 -94.23845 36167 ft 400 kts 204°
2026-05-07 14:20 35.52423 -94.24806 36169 ft 400 kts 204°
2026-05-07 14:20 35.47800 -94.25613 36171 ft 399 kts 204°
2026-05-07 14:21 35.42311 -94.26594 36176 ft 393 kts 207°
2026-05-07 14:21 35.39757 -94.27511 36175 ft 374 kts 216°
2026-05-07 14:21 35.37494 -94.28927 36185 ft 359 kts 224°
2026-05-07 14:21 35.35542 -94.30742 36186 ft 347 kts 231°
2026-05-07 14:22 35.33742 -94.32715 36182 ft 347 kts 231°
2026-05-07 14:22 35.30124 -94.36643 36173 ft 348 kts 231°
2026-05-07 14:23 35.26499 -94.40568 36176 ft 348 kts 231°
2026-05-07 14:23 35.22873 -94.44496 36170 ft 348 kts 231°
2026-05-07 14:24 35.19245 -94.48425 36164 ft 348 kts 231°
2026-05-07 14:24 35.15614 -94.52350 36169 ft 349 kts 231°
2026-05-07 14:25 35.11979 -94.56273 36178 ft 349 kts 231°
2026-05-07 14:25 35.08333 -94.60198 36179 ft 349 kts 231°
2026-05-07 14:26 35.04686 -94.64124 36178 ft 349 kts 231°
2026-05-07 14:26 35.01038 -94.68042 36178 ft 350 kts 231°
2026-05-07 14:27 34.97383 -94.71961 36179 ft 350 kts 231°
2026-05-07 14:27 34.93729 -94.75887 36177 ft 350 kts 230°
2026-05-07 14:28 34.90070 -94.79809 36171 ft 351 kts 230°
2026-05-07 14:28 34.86384 -94.83759 36174 ft 351 kts 230°
2026-05-07 14:29 34.82717 -94.87678 36156 ft 351 kts 230°
2026-05-07 14:29 34.79006 -94.91559 36149 ft 352 kts 229°
2026-05-07 14:30 34.75233 -94.95385 36146 ft 353 kts 229°
2026-05-07 14:30 34.71464 -94.99208 36146 ft 353 kts 229°
2026-05-07 14:31 34.67702 -95.03046 36147 ft 353 kts 229°
2026-05-07 14:31 34.63940 -95.06878 36143 ft 353 kts 229°
2026-05-07 14:32 34.60168 -95.10712 36146 ft 354 kts 229°
2026-05-07 14:32 34.56394 -95.14540 36144 ft 354 kts 229°
2026-05-07 14:33 34.52620 -95.18369 36145 ft 354 kts 229°
2026-05-07 14:33 34.48843 -95.22197 36146 ft 354 kts 229°
2026-05-07 14:34 34.45066 -95.26029 36150 ft 354 kts 229°
2026-05-07 14:34 34.41281 -95.29853 36148 ft 354 kts 229°
2026-05-07 14:35 34.37491 -95.33662 36153 ft 354 kts 229°
2026-05-07 14:35 34.33693 -95.37476 36158 ft 355 kts 229°
2026-05-07 14:36 34.29898 -95.41289 36166 ft 355 kts 229°
2026-05-07 14:36 34.26099 -95.45099 36172 ft 355 kts 229°
2026-05-07 14:37 34.22299 -95.48910 36178 ft 355 kts 229°
2026-05-07 14:37 34.16592 -95.54619 36187 ft 355 kts 228°
2026-05-07 14:38 34.12782 -95.58413 36190 ft 355 kts 228°
2026-05-07 14:38 34.08966 -95.62210 36188 ft 355 kts 228°
2026-05-07 14:39 34.05155 -95.66012 36191 ft 356 kts 228°
2026-05-07 14:39 34.01338 -95.69810 36184 ft 356 kts 228°
2026-05-07 14:40 33.97519 -95.73605 36185 ft 356 kts 228°
2026-05-07 14:40 33.94346 -95.76767 36033 ft 356 kts 228°
2026-05-07 14:41 33.92441 -95.78661 35583 ft 354 kts 228°
2026-05-07 14:41 33.90544 -95.80543 34995 ft 352 kts 228°
2026-05-07 14:41 33.88654 -95.82418 34393 ft 352 kts 228°
2026-05-07 14:41 33.86761 -95.84295 33635 ft 354 kts 227°
2026-05-07 14:42 33.84862 -95.86176 32928 ft 354 kts 227°
2026-05-07 14:42 33.82962 -95.88057 32226 ft 354 kts 227°
2026-05-07 14:42 33.81059 -95.89938 31499 ft 355 kts 227°
2026-05-07 14:42 33.79148 -95.91825 30738 ft 356 kts 227°
2026-05-07 14:43 33.77228 -95.93721 30029 ft 358 kts 227°
2026-05-07 14:43 33.75295 -95.95632 29743 ft 361 kts 227°
2026-05-07 14:43 33.73351 -95.97557 29455 ft 363 kts 227°
2026-05-07 14:43 33.71402 -95.99485 29007 ft 362 kts 227°
2026-05-07 14:44 33.69459 -96.01402 28512 ft 361 kts 227°
2026-05-07 14:44 33.67520 -96.03310 28029 ft 360 kts 227°
2026-05-07 14:44 33.65589 -96.05212 27549 ft 359 kts 227°
2026-05-07 14:44 33.63663 -96.07109 27067 ft 358 kts 227°
2026-05-07 14:45 33.61739 -96.09002 26593 ft 357 kts 227°
2026-05-07 14:45 33.59823 -96.10885 26117 ft 356 kts 227°
2026-05-07 14:45 33.57911 -96.12766 25645 ft 355 kts 227°
2026-05-07 14:45 33.56000 -96.14646 25167 ft 355 kts 227°
2026-05-07 14:46 33.54095 -96.16519 24696 ft 354 kts 227°
2026-05-07 14:46 33.52190 -96.18386 24229 ft 354 kts 227°
2026-05-07 14:46 33.50288 -96.20251 23749 ft 353 kts 227°
2026-05-07 14:46 33.48385 -96.22111 23217 ft 352 kts 227°
2026-05-07 14:47 33.46466 -96.23988 22738 ft 351 kts 227°
2026-05-07 14:47 33.44638 -96.25842 22269 ft 345 kts 232°
2026-05-07 14:47 33.43035 -96.27976 21819 ft 339 kts 236°
2026-05-07 14:47 33.41507 -96.30090 21504 ft 332 kts 236°
2026-05-07 14:48 33.40004 -96.32162 21102 ft 326 kts 236°
2026-05-07 14:48 33.38538 -96.34178 20500 ft 318 kts 236°
2026-05-07 14:48 33.37081 -96.36187 20076 ft 320 kts 236°
2026-05-07 14:48 33.35626 -96.38191 19646 ft 318 kts 236°
2026-05-07 14:49 33.34179 -96.40180 19219 ft 316 kts 236°
2026-05-07 14:49 33.32737 -96.42164 18800 ft 315 kts 236°
2026-05-07 14:49 33.31310 -96.44142 18361 ft 314 kts 236°
2026-05-07 14:49 33.29894 -96.46125 17910 ft 313 kts 237°
2026-05-07 14:50 33.28484 -96.48111 17328 ft 313 kts 237°
2026-05-07 14:50 33.27081 -96.50081 16901 ft 310 kts 236°
2026-05-07 14:50 33.25656 -96.52015 16620 ft 310 kts 235°
2026-05-07 14:50 33.24211 -96.53929 16312 ft 310 kts 235°
2026-05-07 14:51 33.22759 -96.55827 16009 ft 309 kts 235°
2026-05-07 14:51 33.21307 -96.57718 15712 ft 307 kts 235°
2026-05-07 14:51 33.19882 -96.59573 15407 ft 300 kts 235°
2026-05-07 14:51 33.18488 -96.61396 15107 ft 295 kts 235°
2026-05-07 14:52 33.17120 -96.63212 14774 ft 294 kts 236°
2026-05-07 14:52 33.15781 -96.65042 14397 ft 292 kts 236°
2026-05-07 14:52 33.14458 -96.66873 14032 ft 291 kts 237°
2026-05-07 14:52 33.13140 -96.68698 13636 ft 290 kts 236°
2026-05-07 14:53 33.11826 -96.70514 13330 ft 286 kts 236°
2026-05-07 14:53 33.10548 -96.72266 13197 ft 275 kts 236°
2026-05-07 14:53 33.09309 -96.73954 13066 ft 265 kts 236°
2026-05-07 14:53 33.08110 -96.75589 12831 ft 260 kts 236°
2026-05-07 14:54 33.06932 -96.77202 12577 ft 257 kts 236°
2026-05-07 14:54 33.05760 -96.78802 12325 ft 256 kts 235°
2026-05-07 14:54 33.04584 -96.80401 12078 ft 257 kts 235°
2026-05-07 14:54 33.03407 -96.81995 11912 ft 254 kts 234°
2026-05-07 14:55 33.02228 -96.83588 12014 ft 258 kts 234°
2026-05-07 14:55 33.01039 -96.85197 12025 ft 258 kts 234°
2026-05-07 14:55 32.99879 -96.86763 12024 ft 246 kts 234°
2026-05-07 14:55 32.98776 -96.88246 12026 ft 233 kts 235°
2026-05-07 14:56 32.97639 -96.89557 12025 ft 226 kts 221°
2026-05-07 14:56 32.96199 -96.90326 11913 ft 235 kts 201°
2026-05-07 14:56 32.94549 -96.90512 11663 ft 239 kts 192°
2026-05-07 14:56 32.92900 -96.90622 11438 ft 237 kts 192°
2026-05-07 14:57 32.91258 -96.90737 11205 ft 236 kts 192°
2026-05-07 14:57 32.89624 -96.90855 10961 ft 235 kts 192°
2026-05-07 14:57 32.87996 -96.90973 10736 ft 234 kts 191°
2026-05-07 14:57 32.86373 -96.91091 10514 ft 233 kts 191°
2026-05-07 14:58 32.84753 -96.91210 10288 ft 233 kts 191°
2026-05-07 14:58 32.83136 -96.91328 10071 ft 233 kts 190°
2026-05-07 14:58 32.81524 -96.91445 9828 ft 232 kts 190°
2026-05-07 14:58 32.79916 -96.91561 9596 ft 231 kts 190°
2026-05-07 14:59 32.78303 -96.91626 9375 ft 233 kts 187°
2026-05-07 14:59 32.76682 -96.91631 9153 ft 233 kts 186°
2026-05-07 14:59 32.75060 -96.91619 8921 ft 233 kts 186°
2026-05-07 14:59 32.73448 -96.91607 8696 ft 232 kts 186°
2026-05-07 15:00 32.71832 -96.91597 8476 ft 232 kts 186°
2026-05-07 15:00 32.70226 -96.91589 8260 ft 231 kts 186°
2026-05-07 15:00 32.68615 -96.91582 8039 ft 231 kts 186°
2026-05-07 15:00 32.67007 -96.91580 7816 ft 231 kts 186°
2026-05-07 15:01 32.65404 -96.91581 7600 ft 230 kts 186°
2026-05-07 15:01 32.63805 -96.91584 7377 ft 230 kts 186°
2026-05-07 15:01 32.62207 -96.91584 7160 ft 229 kts 185°
2026-05-07 15:01 32.60613 -96.91582 6940 ft 229 kts 185°
2026-05-07 15:02 32.59023 -96.91626 6720 ft 226 kts 195°
2026-05-07 15:02 32.57672 -96.92385 6536 ft 211 kts 230°
2026-05-07 15:02 32.56957 -96.93809 6366 ft 198 kts 260°
2026-05-07 15:02 32.56970 -96.95383 6199 ft 189 kts 286°
2026-05-07 15:03 32.57334 -96.96880 6050 ft 189 kts 287°
2026-05-07 15:03 32.57695 -96.98383 5881 ft 190 kts 287°
2026-05-07 15:03 32.58057 -96.99897 5732 ft 191 kts 287°
2026-05-07 15:03 32.58419 -97.01411 5570 ft 192 kts 288°
2026-05-07 15:04 32.58794 -97.02936 5410 ft 192 kts 293°
2026-05-07 15:04 32.59507 -97.04246 5241 ft 190 kts 318°
2026-05-07 15:04 32.60624 -97.05053 5072 ft 189 kts 343°
2026-05-07 15:04 32.61920 -97.05243 4875 ft 189 kts 360°
2026-05-07 15:05 32.63235 -97.05228 4671 ft 188 kts
2026-05-07 15:05 32.64541 -97.05214 4483 ft 188 kts
2026-05-07 15:05 32.65843 -97.05206 4302 ft 187 kts
2026-05-07 15:05 32.67138 -97.05198 4122 ft 186 kts
2026-05-07 15:06 32.68429 -97.05192 3945 ft 185 kts
2026-05-07 15:06 32.69708 -97.05185 3767 ft 183 kts
2026-05-07 15:06 32.70985 -97.05179 3596 ft 182 kts
2026-05-07 15:06 32.72250 -97.05172 3417 ft 181 kts
2026-05-07 15:07 32.73512 -97.05166 3245 ft 181 kts
2026-05-07 15:07 32.74773 -97.05159 3160 ft 182 kts
2026-05-07 15:07 32.76040 -97.05153 2961 ft 182 kts
2026-05-07 15:07 32.77322 -97.05146 2730 ft 182 kts
2026-05-07 15:08 32.78583 -97.05140 2489 ft 181 kts
2026-05-07 15:08 32.79824 -97.05134 2238 ft 180 kts
2026-05-07 15:08 32.81097 -97.05127 1980 ft 180 kts
2026-05-07 15:08 32.82315 -97.05121 1760 ft 174 kts
2026-05-07 15:09 32.83490 -97.05116 1489 ft 158 kts
2026-05-07 15:09 32.84542 -97.05110 1271 ft 145 kts
2026-05-07 15:09 32.85511 -97.05100 1090 ft 138 kts
2026-05-07 15:09 32.86472 -97.05101 833 ft 134 kts
2026-05-07 15:10 32.87392 -97.05089 872 ft 138 kts
2026-05-07 15:10 32.88367 -97.05081 648 ft 134 kts
2026-05-07 15:10 32.89197 -97.05074 626 ft 98 kts 359°
2026-05-07 15:10 32.89705 -97.05077 616 ft 50 kts 359°
2026-05-07 15:11 32.89848 -97.05049 619 ft 10 kts 18°
2026-05-07 15:11 32.89904 -97.05026 626 ft 11 kts 19°
2026-05-07 15:11 32.89975 -97.04983 618 ft 9 kts 30°
2026-05-07 15:11 32.90035 -97.04940 620 ft 11 kts 31°
2026-05-07 15:12 32.90103 -97.04892 620 ft 10 kts 33°
2026-05-07 15:12 32.90117 -97.04810 616 ft 12 kts 89°
2026-05-07 15:12 32.90137 -97.04733 622 ft 11 kts 87°
2026-05-07 15:12 32.90136 -97.04671 625 ft 8 kts 91°
2026-05-07 15:13 32.90134 -97.04589 629 ft 12 kts 92°
2026-05-07 15:13 32.90135 -97.04489 625 ft 12 kts 88°
2026-05-07 15:13 32.90145 -97.04429 619 ft 1 kts 25°
2026-05-07 15:13 32.90169 -97.04408 625 ft 7 kts 36°
2026-05-07 15:14 32.90195 -97.04384 619 ft 2 kts 37°
2026-05-07 15:14 32.90203 -97.04377 619 ft 0 kts 37°